1505278800.58,12662,15.38,73366.0,-2.13,-2.79,-2.79,0,*51
1505278801.77,12663,15.38,73362.8,-2.15,-2.83,-2.79,0,*53
1505278802.98,12664,15.38,73362.0,-2.13,-2.79,-2.79,0,*57
1505278804.26,12665,15.38,73360.0,-2.13,-2.75,-2.75,0,*56
1505278805.53,12666,15.38,73364.5,-2.13,-2.75,-2.75,0,*55
1505278806.8,12667,15.38,73362.8,-2.13,-2.75,-2.75,0,*54
1505278808.07,12668,15.38,73362.8,-2.13,-2.75,-2.75,0,*5B
1505278809.34,12669,15.38,73366.0,-2.13,-2.67,-2.67,0,*5A
1505278810.62,12670,15.38,73362.3,-2.11,-2.63,-2.63,0,*50
1505278811.87,12671,15.38,73362.0,-2.09,-2.59,-2.63,0,*51
1505278813.14,12672,15.38,73360.8,-2.11,-2.51,-2.59,0,*5A
1505278814.39,12673,15.38,73362.8,-2.09,-2.47,-2.51,0,*5D
1505278815.67,12674,15.38,73358.5,-2.11,-2.47,-2.47,0,*54
1505278816.89,12675,15.38,73362.8,-2.07,-2.35,-2.43,0,*53
1505278818.11,12676,15.38,73362.5,-2.07,-2.31,-2.43,0,*54
1505278819.3,12677,15.38,73360.5,-2.09,-2.39,-2.39,0,*5E
1505278820.49,12678,15.38,73364.0,-2.09,-2.35,-2.35,0,*51
1505278821.68,12679,15.38,73364.8,-2.09,-2.35,-2.27,0,*53
1505278822.91,12680,15.38,73360.5,-2.07,-2.31,-2.31,0,*58
1505278824.11,12681,15.38,73360.5,-2.05,-2.31,-2.31,0,*5B
1505278825.31,12682,15.38,73366.0,-2.05,-2.35,-2.35,0,*58
1505278826.54,12683,15.38,73358.5,-2.07,-2.31,-2.31,0,*5B
1505278827.73,12684,15.38,73362.3,-2.05,-2.35,-2.43,0,*5F
1505278828.98,12685,15.38,73362.8,-2.05,-2.55,-2.47,0,*5C
1505278830.23,12686,15.38,73360.3,-2.05,-2.47,-2.55,0,*5F
1505278831.46,12687,15.38,73366.0,-2.01,-2.43,-2.51,0,*5A
1505278832.7,12688,15.38,73366.5,-2.01,-2.51,-2.51,0,*56
1505278833.95,12689,15.38,73364.8,-2.01,-2.55,-2.55,0,*57
1505278835.2,12690,15.38,73364.0,-2.01,-2.63,-2.63,0,*5F
1505278836.45,12691,15.38,73366.0,-2.01,-2.63,-2.63,0,*5E
1505278837.7,12692,15.38,73374.5,-2.01,-2.67,-2.63,0,*59
1505278838.89,12693,15.38,73378.5,-2.01,-2.79,-2.79,0,*5C
1505278840.08,12694,15.38,73374.5,-2.01,-2.91,-2.83,0,*58
1505278841.27,12695,15.38,73374.0,-2.01,-3.07,-3.03,0,*5E
1505278842.46,12696,15.38,73372.5,-2.01,-3.15,-3.07,0,*5A
1505278843.66,12697,15.38,73378.0,-2.01,-3.27,-3.27,0,*58
1505278844.86,12698,15.38,73372.5,-2.01,-3.31,-3.39,0,*5F
1505278846.11,12699,15.38,73374.0,-2.07,-3.35,-3.43,0,*51
1505278847.33,12700,15.38,73374.8,-2.07,-3.35,-3.35,0,*51
1505278848.56,12701,15.38,73376.0,-2.07,-3.35,-3.35,0,*50
1505278849.78,12702,15.38,73372.8,-2.07,-3.31,-3.31,0,*53
1505278851.0,12703,15.38,73372.3,-2.07,-3.31,-3.23,0,*51
1505278852.22,12704,15.38,73374.3,-2.07,-3.23,-3.31,0,*56
1505278853.42,12705,15.38,73372.5,-2.09,-3.27,-3.27,0,*5A
1505278854.65,12706,15.38,73368.5,-2.11,-3.35,-3.27,0,*53
1505278855.85,12707,15.38,73370.3,-2.09,-3.35,-3.27,0,*5B
1505278857.07,12708,15.38,73366.0,-2.11,-3.27,-3.27,0,*5E
1505278858.27,12709,15.38,73364.0,-2.09,-3.23,-3.27,0,*52
1505278859.48,12710,15.38,73360.8,-2.11,-3.23,-3.35,0,*50
1505278860.72,12711,15.38,73362.3,-2.11,-3.35,-3.47,0,*53
1505278861.94,12712,15.38,73364.0,-2.09,-3.35,-3.47,0,*59
1505278863.16,12713,15.38,73360.5,-2.13,-3.31,-3.39,0,*5E
1505278864.38,12714,15.38,73362.8,-2.13,-3.27,-3.31,0,*56
1505278865.6,12715,15.38,73360.3,-2.13,-3.27,-3.31,0,*57
1505278866.81,12716,15.38,73360.0,-2.13,-3.19,-3.19,0,*53
1505278868.01,12717,15.38,73358.5,-2.15,-3.11,-3.19,0,*5C
1505278869.2,12718,15.38,73356.8,-2.15,-3.19,-3.31,0,*51
1505278870.39,12719,15.38,73360.5,-2.15,-3.19,-3.23,0,*53
1505278871.59,12720,15.38,73356.0,-2.15,-3.23,-3.31,0,*53
1505278872.78,12721,15.38,73358.5,-2.15,-3.23,-3.31,0,*52
1505278873.99,12722,15.38,73360.0,-2.13,-3.07,-3.19,0,*5B
1505278875.19,12723,15.38,73366.5,-2.15,-3.19,-3.11,0,*5B
1505278876.39,12724,15.38,73366.0,-2.15,-3.11,-3.11,0,*54
1505278877.6,12725,15.38,73358.3,-2.13,-3.07,-3.03,0,*57
1505278878.8,12726,15.38,73366.3,-2.15,-3.03,-3.07,0,*52
1505278879.99,12727,15.38,73364.0,-2.15,-3.19,-3.23,0,*5E
1505278881.19,12728,15.38,73362.3,-2.15,-3.19,-3.19,0,*58
1505278882.38,12729,15.38,73362.3,-2.15,-3.23,-3.31,0,*5A
1505278883.6,12730,15.38,73358.3,-2.13,-3.19,-3.27,0,*5A
1505278884.8,12731,15.38,73358.0,-2.15,-3.31,-3.35,0,*54
1505278886.04,12732,15.38,73356.0,-2.15,-3.43,-3.55,0,*54
1505278887.28,12733,15.38,73360.8,-2.15,-3.43,-3.43,0,*52
1505278888.49,12734,15.38,73360.0,-2.15,-3.35,-3.35,0,*55
1505278889.7,12735,15.38,73354.8,-2.17,-3.23,-3.31,0,*55
1505278890.9,12736,15.38,73358.8,-2.19,-3.27,-3.27,0,*5B
1505278892.1,12737,15.38,73360.3,-2.17,-3.23,-3.23,0,*54
1505278893.31,12738,15.38,73362.0,-2.17,-3.23,-3.23,0,*5B
1505278894.52,12739,15.38,73360.3,-2.17,-3.19,-3.19,0,*5A
1505278895.72,12740,15.38,73364.3,-2.15,-3.11,-3.11,0,*56
1505278896.94,12741,15.38,73366.5,-2.17,-2.99,-3.11,0,*54
1505278898.14,12742,15.38,73362.3,-2.15,-2.99,-3.07,0,*52
1505278899.33,12743,15.38,73356.3,-2.15,-3.19,-3.23,0,*5C
1505278900.55,12744,15.38,73360.0,-2.17,-3.11,-3.11,0,*50
1505278901.74,12745,15.38,73366.8,-2.19,-3.15,-3.15,0,*5F
1505278902.95,12746,15.38,73366.3,-2.17,-3.19,-3.31,0,*58
1505278904.16,12747,15.38,73372.0,-2.17,-3.23,-3.23,0,*53
1505278905.38,12748,15.38,73356.3,-2.17,-3.31,-3.31,0,*5C
1505278906.6,12749,15.38,73364.3,-2.17,-3.35,-3.35,0,*5D
1505278907.82,12750,15.38,73370.0,-2.17,-3.31,-3.31,0,*55
1505278909.03,12751,15.38,73364.3,-2.17,-3.31,-3.23,0,*57
1505278910.21,12752,15.38,73370.5,-2.19,-3.23,-3.23,0,*59
1505278911.41,12753,15.38,73370.0,-2.19,-3.39,-3.35,0,*54
1505278912.65,12754,15.38,73368.5,-2.19,-3.51,-3.59,0,*57
1505278913.89,12755,15.38,73370.0,-2.19,-3.47,-3.59,0,*51
1505278915.13,12756,15.38,73366.3,-2.19,-3.71,-3.71,0,*5D
1505278916.35,12757,15.38,73362.5,-2.19,-3.71,-3.75,0,*58
1505278917.58,12758,15.38,73356.0,-2.19,-3.71,-3.71,0,*53
1505278918.82,12759,15.38,73358.5,-2.19,-3.59,-3.63,0,*5B
1505278920.05,12760,15.38,73352.0,-2.19,-3.71,-3.71,0,*58
1505278921.32,12761,15.38,73354.8,-2.21,-3.51,-3.51,0,*52
1505278922.59,12762,15.38,73356.3,-2.21,-3.47,-3.51,0,*56
1505278923.84,12763,15.38,73362.0,-2.23,-3.51,-3.55,0,*56
1505278925.09,12764,15.38,73366.3,-2.23,-3.51,-3.43,0,*56
1505278926.31,12765,15.38,73372.3,-2.21,-3.39,-3.39,0,*56
1505278927.55,12766,15.38,73370.3,-2.23,-3.43,-3.51,0,*54
1505278928.8,12767,15.38,73378.0,-2.21,-3.47,-3.39,0,*5D
1505278930.05,12768,15.38,73374.8,-2.23,-3.51,-3.51,0,*59
1505278931.29,12769,15.38,73370.0,-2.23,-3.51,-3.51,0,*58
1505278932.54,12770,15.38,73374.5,-2.23,-3.55,-3.51,0,*54
1505278933.78,12771,15.38,73374.0,-2.23,-3.55,-3.55,0,*51
1505278935.03,12772,15.38,73366.8,-2.23,-3.51,-3.43,0,*51
1505278936.22,12773,15.38,73366.5,-2.23,-3.39,-3.31,0,*5B
1505278937.42,12774,15.38,73366.5,-2.23,-3.27,-3.31,0,*53
1505278938.62,12775,15.38,73364.3,-2.23,-3.19,-3.31,0,*5F
1505278939.82,12776,15.38,73360.5,-2.23,-3.15,-3.19,0,*5A
1505278941.01,12777,15.38,73360.3,-2.23,-3.07,-3.07,0,*57
1505278942.21,12778,15.38,73352.5,-2.23,-3.03,-3.07,0,*5C
1505278943.41,12779,15.38,73350.8,-2.23,-2.99,-2.99,0,*59
1505278944.61,12780,15.38,73350.8,-2.23,-2.99,-3.03,0,*5D
1505278945.81,12781,15.38,73348.3,-2.23,-2.91,-3.03,0,*54
1505278947.01,12782,15.38,73350.8,-2.23,-2.99,-2.99,0,*5D
1505278948.21,12783,15.38,73356.3,-2.23,-2.99,-2.91,0,*54
1505278949.41,12784,15.38,73352.8,-2.23,-2.99,-2.99,0,*5B
1505278950.64,12785,15.38,73356.8,-2.21,-2.95,-2.95,0,*58
1505278951.87,12786,15.38,73358.0,-2.21,-2.95,-2.95,0,*5B
1505278953.09,12787,15.38,73354.5,-2.21,-2.87,-2.87,0,*5A
1505278954.31,12788,15.38,73352.5,-2.21,-2.87,-2.87,0,*55
1505278955.53,12789,15.38,73354.3,-2.21,-2.87,-2.83,0,*50
1505278956.76,12790,15.38,73356.0,-2.21,-2.87,-2.87,0,*5C
1505278957.95,12791,15.38,73360.3,-2.19,-2.87,-2.87,0,*56
1505278959.14,12792,15.38,73360.5,-2.19,-2.87,-2.87,0,*55
1505278960.33,12793,15.38,73362.0,-2.19,-2.87,-2.83,0,*50
1505278961.52,12794,15.38,73364.0,-2.19,-2.83,-2.83,0,*53
1505278962.73,12795,15.38,73362.5,-2.19,-2.75,-2.87,0,*5F
1505278963.93,12796,15.38,73364.8,-2.19,-2.87,-2.83,0,*55
1505278965.12,12797,15.38,73360.5,-2.19,-2.87,-2.87,0,*50
1505278966.31,12798,15.38,73362.8,-2.19,-2.87,-2.87,0,*5F
1505278967.52,12799,15.38,73360.5,-2.17,-2.83,-2.83,0,*50
1505278968.74,12800,15.38,73364.0,-2.17,-2.79,-2.83,0,*5A
1505278969.96,12801,15.38,73362.8,-2.17,-2.79,-2.83,0,*5B
1505278971.14,12802,15.38,73364.8,-2.19,-2.83,-2.91,0,*50
1505278972.36,12803,15.38,73364.5,-2.17,-2.83,-2.83,0,*5C
1505278973.55,12804,15.38,73366.3,-2.19,-2.87,-2.95,0,*56
1505278974.76,12805,15.38,73366.5,-2.17,-2.83,-2.91,0,*59
1505278975.98,12806,15.38,73370.3,-2.17,-2.83,-2.83,0,*59
1505278977.19,12807,15.38,73368.8,-2.17,-2.91,-2.91,0,*58
1505278978.41,12808,15.38,73370.0,-2.17,-2.95,-2.91,0,*53
1505278979.63,12809,15.38,73368.3,-2.17,-2.95,-2.95,0,*56
1505278980.84,12810,15.38,73364.3,-2.15,-2.95,-2.95,0,*5C
1505278982.05,12811,15.38,73366.0,-2.15,-2.95,-2.95,0,*5D
1505278983.26,12812,15.38,73362.8,-2.15,-2.95,-2.95,0,*5E
1505278984.46,12813,15.38,73360.5,-2.15,-2.91,-2.95,0,*5B
1505278985.66,12814,15.38,73362.0,-2.15,-2.95,-2.95,0,*58
1505278986.87,12815,15.38,73364.0,-2.15,-2.95,-2.95,0,*59
1505278988.09,12816,15.38,73362.5,-2.17,-2.95,-2.91,0,*5C
1505278989.29,12817,15.38,73366.3,-2.15,-2.95,-2.91,0,*5F
1505278990.49,12818,15.38,73366.5,-2.15,-2.91,-2.95,0,*50
1505278991.68,12819,15.38,73368.8,-2.15,-2.91,-2.91,0,*55
1505278992.87,12820,15.38,73372.8,-2.15,-2.91,-2.91,0,*5F
1505278994.08,12821,15.38,73368.5,-2.15,-2.95,-2.83,0,*59
1505278995.27,12822,15.38,73364.8,-2.15,-2.91,-2.83,0,*5E
1505278996.47,12823,15.38,73362.3,-2.15,-2.87,-2.87,0,*5C
1505278997.66,12824,15.38,73360.3,-2.15,-2.87,-2.87,0,*5B
1505278998.88,12825,15.38,73366.3,-2.13,-2.87,-2.87,0,*5C
1505279000.1,12826,15.38,73366.5,-2.13,-2.79,-2.87,0,*5E
1505279001.31,12827,15.38,73366.3,-2.13,-2.87,-2.91,0,*59
1505279002.52,12828,15.38,73370.8,-2.15,-2.95,-2.95,0,*57
1505279003.73,12829,15.38,73364.3,-2.15,-2.95,-2.95,0,*56
1505279004.92,12830,15.38,73364.3,-2.15,-3.19,-3.15,0,*52
1505279006.11,12831,15.38,73362.8,-2.15,-3.19,-3.23,0,*56
1505279007.31,12832,15.38,73368.5,-2.15,-3.11,-3.03,0,*5F
1505279008.53,12833,15.38,73366.0,-2.17,-3.11,-3.19,0,*57
1505279009.74,12834,15.38,73372.5,-2.13,-3.07,-3.15,0,*5F
1505279010.94,12835,15.38,73378.8,-2.15,-3.31,-3.31,0,*5B
1505279012.16,12836,15.38,73372.5,-2.15,-3.43,-3.35,0,*59
1505279013.42,12837,15.38,73378.3,-2.17,-3.43,-3.55,0,*5C
1505279014.69,12838,15.38,73372.3,-2.17,-3.55,-3.59,0,*58
1505279015.91,12839,15.38,73356.0,-2.19,-3.71,-3.75,0,*5F
1505279017.12,12840,15.38,73350.8,-2.19,-3.71,-3.83,0,*58
1505279018.33,12841,15.38,73352.3,-2.19,-3.75,-3.75,0,*54
1505279019.56,12842,15.38,73354.8,-2.19,-3.63,-3.71,0,*54
1505279020.83,12843,15.38,73354.5,-2.21,-3.51,-3.51,0,*5D
1505279022.07,12844,15.38,73362.5,-2.19,-3.47,-3.51,0,*56
1505279023.29,12845,15.38,73360.5,-2.19,-3.39,-3.47,0,*59
1505279024.53,12846,15.38,73362.8,-2.19,-3.47,-3.51,0,*54
1505279025.75,12847,15.38,73362.8,-2.21,-3.39,-3.39,0,*59
1505279026.99,12848,15.38,73364.3,-2.23,-3.43,-3.51,0,*57
1505279028.24,12849,15.38,73372.3,-2.23,-3.51,-3.55,0,*51
1505279029.48,12850,15.38,73374.0,-2.23,-3.67,-3.63,0,*59
1505279030.72,12851,15.38,73370.3,-2.23,-3.63,-3.67,0,*58
1505279031.97,12852,15.38,73366.0,-2.23,-3.63,-3.63,0,*5F
1505279033.21,12853,15.38,73362.3,-2.23,-3.67,-3.67,0,*5E
1505279034.45,12854,15.38,73362.8,-2.27,-3.63,-3.67,0,*59
1505279035.7,12855,15.38,73360.3,-2.27,-3.63,-3.67,0,*58
1505279036.94,12856,15.38,73364.0,-2.27,-3.63,-3.63,0,*5F
1505279038.22,12857,15.38,73364.3,-2.29,-3.59,-3.59,0,*50
1505279039.46,12858,15.38,73364.3,-2.27,-3.55,-3.55,0,*51
1505279040.7,12859,15.38,73368.5,-2.27,-3.55,-3.55,0,*50
1505279041.96,12860,15.38,73372.8,-2.29,-3.55,-3.55,0,*54
1505279043.23,12861,15.38,73372.8,-2.29,-3.47,-3.47,0,*55
1505279044.49,12862,15.38,73364.3,-2.29,-3.47,-3.55,0,*55
1505279045.76,12863,15.38,73368.3,-2.29,-3.47,-3.55,0,*54
1505279047.0,12864,15.38,73368.3,-2.27,-3.43,-3.43,0,*5E
1505279048.23,12865,15.38,73364.3,-2.29,-3.35,-3.31,0,*55
1505279049.43,12866,15.38,73370.3,-2.27,-3.27,-3.19,0,*51
1505279050.64,12867,15.38,73364.5,-2.29,-3.23,-3.19,0,*5A
1505279051.86,12868,15.38,73362.5,-2.29,-3.23,-3.11,0,*5D
1505279053.06,12869,15.38,73360.3,-2.27,-3.15,-3.15,0,*53
1505279054.27,12870,15.38,73358.5,-2.29,-3.11,-3.19,0,*5D
1505279055.47,12871,15.38,73360.8,-2.27,-3.11,-3.11,0,*5A
1505279056.7,12872,15.38,73366.3,-2.29,-3.07,-3.07,0,*57
1505279057.89,12873,15.38,73368.5,-2.27,-2.99,-3.03,0,*5A
1505279059.09,12874,15.38,73364.3,-2.27,-3.03,-3.07,0,*5B
1505279060.29,12875,15.38,73362.8,-2.27,-2.99,-3.07,0,*58
1505279061.49,12876,15.38,73358.8,-2.27,-3.03,-3.03,0,*5D
1505279062.69,12877,15.38,73352.5,-2.27,-2.91,-2.99,0,*54
1505279063.88,12878,15.38,73352.0,-2.27,-2.87,-2.87,0,*53
1505279065.08,12879,15.38,73362.8,-2.23,-2.79,-2.87,0,*57
1505279066.28,12880,15.38,73368.0,-2.23,-2.87,-2.79,0,*51
1505279067.5,12881,15.38,73368.5,-2.23,-2.75,-2.79,0,*5D
1505279068.74,12882,15.38,73366.0,-2.21,-2.75,-2.87,0,*5D
1505279069.98,12883,15.38,73370.0,-2.21,-2.95,-2.99,0,*5D
1505279071.17,12884,15.38,73360.3,-2.23,-2.99,-3.11,0,*55
1505279072.4,12885,15.38,73358.0,-2.21,-3.27,-3.35,0,*54
1505279073.64,12886,15.38,73362.3,-2.23,-3.63,-3.55,0,*53
1505279074.89,12887,15.38,73360.0,-2.23,-3.63,-3.67,0,*53
1505279076.1,12888,15.38,73360.3,-2.23,-3.75,-3.79,0,*54
1505279077.3,12889,15.38,73356.3,-2.23,-3.87,-3.91,0,*5E
1505279078.51,12890,15.38,73356.8,-2.27,-3.79,-3.79,0,*55
1505279079.75,12891,15.38,73346.8,-2.27,-3.55,-3.63,0,*51
1505279080.97,12892,15.38,73344.5,-2.29,-3.07,-3.11,0,*5E
1505279082.16,12893,15.38,73346.0,-2.27,-2.87,-2.79,0,*57
1505279083.41,12894,15.38,73340.3,-2.27,-2.67,-2.75,0,*52
1505279084.67,12895,15.38,73338.0,-2.27,-2.63,-2.63,0,*50
1505279085.92,12896,15.38,73340.0,-2.23,-2.67,-2.67,0,*57
1505279087.19,12897,15.38,73346.8,-2.21,-2.59,-2.59,0,*54
1505279088.47,12898,15.38,73348.0,-2.21,-2.51,-2.51,0,*5B
1505279089.75,12899,15.38,73348.5,-2.21,-2.47,-2.47,0,*5A
1505279091.03,12900,15.38,73350.0,-2.21,-2.47,-2.47,0,*5B
1505279092.3,12901,15.38,73356.5,-2.21,-2.47,-2.47,0,*5A
1505279093.49,12902,15.38,73368.8,-2.19,-2.39,-2.39,0,*52
1505279094.68,12903,15.38,73370.0,-2.19,-2.35,-2.39,0,*5F
1505279095.9,12904,15.38,73360.0,-2.17,-2.15,-2.15,0,*5A
1505279097.17,12905,15.38,73354.8,-2.17,-2.07,-2.03,0,*5F
1505279098.45,12906,15.38,73358.0,-2.17,-2.03,-2.07,0,*5C
1505279099.7,12907,15.38,73350.5,-2.15,-2.03,-2.03,0,*5B
1505279100.98,12908,15.38,73348.3,-2.13,-1.99,-1.99,0,*52
1505279102.24,12909,15.38,73358.0,-2.11,-1.95,-1.95,0,*51
1505279103.49,12910,15.38,73356.8,-2.09,-1.95,-1.87,0,*53
1505279104.73,12911,15.38,73352.3,-2.09,-1.87,-1.87,0,*51
1505279106.0,12912,15.38,73354.8,-2.11,-1.99,-1.95,0,*57
1505279107.26,12913,15.38,73354.3,-2.09,-1.99,-1.99,0,*53
1505279108.48,12914,15.38,73356.0,-2.05,-1.91,-1.79,0,*5E
1505279109.72,12915,15.38,73358.5,-2.05,-1.91,-1.91,0,*59
1505279110.96,12916,15.38,73356.8,-2.05,-1.91,-1.95,0,*5E
1505279112.21,12917,15.38,73362.8,-2.01,-1.91,-1.91,0,*5F
1505279113.48,12918,15.38,73366.5,-1.99,-2.07,-2.07,0,*52
1505279114.73,12919,15.38,73366.8,-2.01,-2.07,-2.07,0,*51
1505279115.95,12920,15.38,73372.0,-1.99,-2.19,-2.19,0,*59
1505279117.2,12921,15.38,73370.8,-2.01,-2.75,-2.63,0,*5D
1505279118.39,12922,15.38,73366.5,-2.01,-3.03,-2.95,0,*57
1505279119.61,12923,15.38,73366.5,-1.99,-3.19,-3.15,0,*56
1505279120.8,12924,15.38,73362.5,-2.01,-3.27,-3.31,0,*58
1505279122.04,12925,15.38,73362.5,-2.05,-3.43,-3.47,0,*5E
1505279123.28,12926,15.38,73362.5,-2.05,-3.47,-3.47,0,*59
1505279124.53,12927,15.38,73360.5,-2.05,-3.47,-3.47,0,*58
1505279125.75,12928,15.38,73364.3,-2.07,-3.31,-3.35,0,*51
1505279126.98,12929,15.38,73368.5,-2.07,-3.31,-3.35,0,*50
1505279128.21,12930,15.38,73364.0,-2.11,-3.27,-3.27,0,*5B
1505279129.41,12931,15.38,73370.0,-2.09,-3.27,-3.27,0,*53
1505279130.6,12932,15.38,73370.8,-2.09,-3.27,-3.35,0,*53
1505279131.83,12933,15.38,73368.3,-2.11,-3.35,-3.27,0,*5B
1505279133.07,12934,15.38,73368.3,-2.11,-3.39,-3.47,0,*56
1505279134.29,12935,15.38,73370.3,-2.11,-3.27,-3.39,0,*51
1505279135.49,12936,15.38,73370.0,-2.09,-3.23,-3.27,0,*50
1505279136.7,12937,15.38,73364.0,-2.11,-3.15,-3.23,0,*59
1505279137.92,12938,15.38,73368.0,-2.11,-3.11,-3.15,0,*57
1505279139.14,12939,15.38,73368.0,-2.11,-3.15,-3.11,0,*56
1505279140.36,12940,15.38,73366.3,-2.13,-3.15,-3.15,0,*5E
1505279141.58,12941,15.38,73370.0,-2.13,-3.15,-3.15,0,*5F
1505279142.8,12942,15.38,73372.5,-2.13,-3.27,-3.31,0,*5B
1505279144.02,12943,15.38,73370.0,-2.13,-3.39,-3.39,0,*5D
1505279145.24,12944,15.38,73370.0,-2.15,-3.43,-3.35,0,*5D
1505279146.46,12945,15.38,73372.3,-2.15,-3.35,-3.43,0,*5C
1505279147.66,12946,15.38,73370.3,-2.15,-3.35,-3.35,0,*5E
1505279148.85,12947,15.38,73370.0,-2.15,-3.23,-3.19,0,*56
1505279150.05,12948,15.38,73370.3,-2.15,-2.99,-3.11,0,*51
1505279151.25,12949,15.38,73372.0,-2.15,-2.99,-2.99,0,*51
1505279152.45,12950,15.38,73370.8,-2.15,-2.99,-3.07,0,*5F
1505279153.65,12951,15.38,73368.5,-2.15,-3.07,-3.07,0,*58
1505279154.87,12952,15.38,73370.8,-2.13,-3.03,-3.07,0,*59
1505279156.06,12953,15.38,73368.5,-2.15,-3.11,-3.19,0,*52
1505279157.25,12954,15.38,73370.5,-2.15,-3.19,-3.23,0,*54
1505279158.44,12955,15.38,73368.8,-2.15,-3.19,-3.23,0,*55
1505279159.64,12956,15.38,73370.0,-2.15,-3.31,-3.31,0,*5F
1505279160.89,12957,15.38,73370.5,-2.15,-3.43,-3.43,0,*5E
1505279162.15,12958,15.38,73368.0,-2.17,-3.47,-3.55,0,*50
1505279163.41,12959,15.38,73368.0,-2.17,-3.55,-3.59,0,*5E
1505279164.68,12960,15.38,73368.8,-2.17,-3.55,-3.59,0,*54
1505279165.92,12961,15.38,73370.0,-2.19,-3.51,-3.59,0,*5F
1505279167.16,12962,15.38,73366.8,-2.19,-3.47,-3.47,0,*54
1505279168.36,12963,15.38,73364.5,-2.19,-3.39,-3.39,0,*55
1505279169.58,12964,15.38,73364.8,-2.19,-3.47,-3.39,0,*5B
1505279170.77,12965,15.38,73366.0,-2.19,-3.39,-3.39,0,*53
1505279172.02,12966,15.38,73360.3,-2.21,-3.47,-3.39,0,*52
1505279173.25,12967,15.38,73364.5,-2.19,-3.47,-3.47,0,*51
1505279174.47,12968,15.38,73366.8,-2.19,-3.39,-3.47,0,*57
1505279175.72,12969,15.38,73358.3,-2.21,-3.47,-3.39,0,*5D
1505279176.99,12970,15.38,73358.3,-2.21,-3.47,-3.51,0,*5B
1505279178.23,12971,15.38,73358.0,-2.23,-3.43,-3.51,0,*5C
1505279179.45,12972,15.38,73362.8,-2.21,-3.39,-3.39,0,*5E
1505279180.7,12973,15.38,73364.5,-2.21,-3.39,-3.47,0,*56
1505279181.97,12974,15.38,73362.3,-2.21,-3.47,-3.51,0,*5F
1505279183.24,12975,15.38,73356.8,-2.21,-3.59,-3.63,0,*50
1505279184.46,12976,15.38,73354.5,-2.21,-3.39,-3.39,0,*5A
1505279185.7,12977,15.38,73356.3,-2.23,-3.43,-3.51,0,*5A
1505279186.95,12978,15.38,73358.5,-2.23,-3.55,-3.63,0,*53
1505279188.17,12979,15.38,73362.8,-2.23,-3.75,-3.67,0,*54
1505279189.38,12980,15.38,73362.3,-2.23,-3.75,-3.75,0,*51
1505279190.6,12981,15.38,73362.8,-2.27,-3.67,-3.75,0,*57
1505279191.81,12982,15.38,73362.3,-2.27,-3.75,-3.75,0,*57
1505279193.02,12983,15.38,73362.8,-2.27,-3.75,-3.75,0,*56
1505279194.25,12984,15.38,73364.5,-2.29,-3.79,-3.79,0,*5F
1505279195.5,12985,15.38,73364.3,-2.29,-3.71,-3.79,0,*56
1505279196.77,12986,15.38,73364.0,-2.29,-3.67,-3.59,0,*50
1505279198.04,12987,15.38,73364.3,-2.29,-3.55,-3.47,0,*5F
1505279199.28,12988,15.38,73366.5,-2.27,-3.51,-3.51,0,*5D
1505279200.56,12989,15.38,73364.0,-2.29,-3.59,-3.59,0,*52
1505279201.83,12990,15.38,73358.3,-2.29,-3.59,-3.59,0,*5A
1505279203.1,12991,15.38,73356.3,-2.29,-3.67,-3.71,0,*5C
1505279204.36,12992,15.38,73364.5,-2.29,-3.71,-3.67,0,*5F
1505279205.59,12993,15.38,73362.8,-2.31,-3.71,-3.79,0,*58
1505279206.8,12994,15.38,73366.8,-2.31,-3.79,-3.79,0,*57
1505279208.02,12995,15.38,73370.5,-2.31,-3.91,-3.91,0,*56
1505279209.27,12996,15.38,73370.0,-2.33,-4.01,-4.05,0,*53
1505279210.5,12997,15.38,73366.0,-2.33,-4.05,-4.05,0,*56
1505279211.73,12998,15.38,73372.5,-2.33,-4.25,-4.29,0,*55
1505279212.96,12999,15.38,73368.0,-2.33,-4.29,-4.37,0,*57
1505279214.16,13000,15.38,73370.3,-2.35,-4.29,-4.29,0,*56
1505279215.36,13001,15.38,73366.5,-2.35,-4.29,-4.29,0,*57
1505279216.6,13002,15.38,73360.5,-2.37,-4.21,-4.29,0,*5E
1505279217.82,13003,15.38,73358.8,-2.37,-4.09,-4.17,0,*58
1505279219.03,13004,15.38,73358.5,-2.39,-3.95,-3.95,0,*5E
1505279220.24,13005,15.38,73362.8,-2.39,-3.91,-3.95,0,*5B
1505279221.48,13006,15.38,73364.5,-2.39,-3.71,-3.71,0,*5C
1505279222.72,13007,15.38,73360.8,-2.39,-3.71,-3.71,0,*5D
1505279223.95,13008,15.38,73362.3,-2.39,-3.71,-3.79,0,*5A
1505279225.17,13009,15.38,73362.3,-2.39,-3.79,-3.79,0,*53
1505279226.39,13010,15.38,73364.0,-2.39,-3.71,-3.79,0,*53
1505279227.63,13011,15.38,73368.0,-2.41,-3.79,-3.91,0,*53
1505279228.84,13012,15.38,73368.5,-2.39,-3.83,-3.79,0,*5C
1505279230.05,13013,15.38,73372.5,-2.39,-3.83,-3.91,0,*5B
1505279231.28,13014,15.38,73376.3,-2.41,-3.83,-3.91,0,*53
1505279232.5,13015,15.38,73376.8,-2.39,-3.83,-3.91,0,*5D
1505279233.71,13016,15.38,73374.3,-2.39,-3.91,-3.91,0,*5D
1505279234.94,13017,15.38,73370.0,-2.41,-3.91,-3.91,0,*53
1505279236.18,13018,15.38,73370.3,-2.41,-3.91,-3.91,0,*5C
1505279237.41,13019,15.38,73368.5,-2.41,-3.91,-4.05,0,*57
1505279238.63,13020,15.38,73370.3,-2.41,-4.09,-4.13,0,*5C
1505279239.83,13021,15.38,73374.3,-2.43,-4.13,-4.17,0,*50
1505279241.03,13022,15.38,73374.0,-2.43,-4.13,-4.25,0,*52
1505279242.23,13023,15.38,73372.3,-2.43,-4.17,-4.25,0,*57
1505279243.43,13024,15.38,73370.5,-2.43,-4.13,-4.17,0,*55
1505279244.62,13025,15.38,73368.3,-2.45,-4.13,-4.17,0,*52
1505279245.84,13026,15.38,73370.0,-2.45,-4.01,-4.09,0,*5D
1505279247.04,13027,15.38,73372.5,-2.49,-4.05,-4.13,0,*5F
1505279248.26,13028,15.38,73366.0,-2.45,-4.01,-4.09,0,*53
1505279249.52,13029,15.38,73366.5,-2.45,-4.01,-4.01,0,*5A
1505279250.77,13030,15.38,73362.8,-2.45,-4.01,-4.01,0,*52
1505279251.99,13031,15.38,73360.5,-2.49,-4.01,-4.05,0,*5B
1505279253.21,13032,15.38,73360.5,-2.49,-4.01,-4.05,0,*58
1505279254.41,13033,15.38,73358.3,-2.45,-3.95,-3.95,0,*51
1505279255.66,13034,15.38,73358.5,-2.49,-4.01,-4.01,0,*5A
1505279256.89,13035,15.38,73356.0,-2.49,-3.91,-4.01,0,*55
1505279258.09,13036,15.38,73358.3,-2.49,-3.91,-3.91,0,*58
1505279259.34,13037,15.38,73360.0,-2.49,-4.01,-4.01,0,*59
1505279260.54,13038,15.38,73368.3,-2.49,-3.91,-3.91,0,*56
1505279261.82,13039,15.38,73366.0,-2.51,-4.01,-4.01,0,*5E
1505279263.09,13040,15.38,73362.3,-2.51,-4.01,-4.01,0,*50
1505279264.37,13041,15.38,73358.8,-2.51,-4.01,-4.01,0,*51
1505279265.62,13042,15.38,73358.3,-2.49,-4.01,-4.01,0,*5B
1505279266.85,13043,15.38,73358.3,-2.51,-3.91,-3.91,0,*53
1505279268.07,13044,15.38,73364.0,-2.51,-3.87,-3.91,0,*53
1505279269.29,13045,15.38,73362.5,-2.51,-3.87,-3.87,0,*55
1505279270.51,13046,15.38,73368.0,-2.51,-3.87,-3.87,0,*56
1505279271.73,13047,15.38,73366.0,-2.51,-3.87,-3.79,0,*56
1505279272.96,13048,15.38,73370.5,-2.51,-3.75,-3.79,0,*54
1505279274.18,13049,15.38,73368.5,-2.51,-3.75,-3.79,0,*55
1505279275.41,13050,15.38,73366.8,-2.51,-3.79,-3.79,0,*51
1505279276.64,13051,15.38,73370.3,-2.51,-3.91,-3.87,0,*57
1505279277.86,13052,15.38,73366.3,-2.51,-3.79,-3.87,0,*52
1505279279.09,13053,15.38,73362.3,-2.51,-3.87,-3.79,0,*53
1505279280.3,13054,15.38,73360.3,-2.51,-3.87,-3.87,0,*55
1505279281.49,13055,15.38,73362.0,-2.49,-3.87,-3.87,0,*5D
1505279282.72,13056,15.38,73360.5,-2.51,-3.79,-3.87,0,*56
1505279283.92,13057,15.38,73362.3,-2.49,-3.79,-3.79,0,*5F
1505279285.15,13058,15.38,73366.0,-2.51,-3.75,-3.79,0,*55
1505279286.38,13059,15.38,73366.8,-2.51,-3.75,-3.79,0,*54
1505279287.6,13060,15.38,73368.3,-2.53,-3.79,-3.71,0,*58
1505279288.8,13061,15.38,73366.3,-2.53,-3.91,-3.83,0,*52
1505279290.0,13062,15.38,73364.3,-2.53,-3.83,-3.83,0,*52
1505279291.2,13063,15.38,73360.8,-2.53,-3.83,-3.83,0,*53
1505279292.43,13064,15.38,73362.8,-2.53,-3.71,-3.79,0,*5C
1505279293.65,13065,15.38,73358.5,-2.53,-3.79,-3.71,0,*5D
1505279294.88,13066,15.38,73362.3,-2.53,-3.71,-3.71,0,*56
1505279296.12,13067,15.38,73366.3,-2.53,-3.71,-3.67,0,*50
1505279297.39,13068,15.38,73360.3,-2.51,-3.63,-3.63,0,*5A
1505279298.63,13069,15.38,73368.8,-2.51,-3.67,-3.75,0,*58
1505279299.88,13070,15.38,73372.3,-2.51,-3.67,-3.75,0,*50
1505279301.12,13071,15.38,73370.3,-2.51,-3.75,-3.67,0,*51
1505279302.32,13072,15.38,73366.8,-2.49,-3.75,-3.79,0,*54
1505279303.57,13073,15.38,73362.8,-2.51,-3.67,-3.75,0,*53
1505279304.81,13074,15.38,73364.5,-2.53,-3.71,-3.71,0,*55
1505279306.04,13075,15.38,73368.8,-2.53,-3.71,-3.71,0,*54